Hourly Data Report for July 13, 2021

BONAVISTA
NEWFOUNDLAND
Current Station Operator: ECCC - MSC

48°40'02.000" N
53°06'51.000" W
25.60 m
8400601
71178
AVA

Download Data

Hourly Data (July 2021)
Hourly Data Report for July 13, 2021
TIME
LST
Temp Definition
°C
Dew Point Definition
°C
Rel Hum Definition
%
Precip. Amount Definition
mm

Wind Dir Definition
10's deg

Wind Spd Definition
km/h
Visibility Definition
km
Stn Press Definition
kPa
Hmdx Definition


Wind Chill Definition


Weather Definition


00:30 8.5 6.8 89 0.0 32 51   101.29     LegendNANA
01:30 8.4 6.4 87 0.0 32 52   101.33     LegendNANA
02:30 8.9 7.0 88 0.0 32 56   101.36     LegendNANA
03:30 8.9 6.6 86 0.0 31 49   101.39     LegendNANA
04:30 9.2 6.7 84 0.0 31 50   101.42     LegendNANA
05:30 9.7 6.9 82 0.0 30 47   101.47     LegendNANA
06:30 10.2 6.9 80 0.0 31 51   101.53     LegendNANA
07:30 10.4 6.6 77 0.0 32 53   101.59     LegendNANA
08:30 9.8 6.7 81 0.0 33 59   101.68     LegendNANA
09:30 10.1 7.1 81 0.0 34 58   101.77     LegendNANA
10:30 10.3 6.8 79 0.0 34 54   101.89     LegendNANA
11:30 10.8 7.0 77 0.0 34 51   101.98     LegendNANA
12:30 10.4 6.7 78 0.0 34 44   102.05     LegendNANA
13:30 10.4 6.3 75 0.0 35 42   102.09     LegendNANA
14:30 12.0 6.9 71 0.0 35 29   102.12     LegendNANA
15:30 12.3 7.1 71 0.0 35 22   102.16     LegendNANA
16:30 11.9 6.6 70 0.0 2 19   102.15     LegendNANA
17:30 11.3 6.0 70 0.0 2 15   102.16     LegendNANA
18:30 10.9 5.6 70 0.0 3 10   102.16     LegendNANA
19:30 10.5 5.1 70 0.0 17 4   102.19     LegendNANA
20:30 9.6 6.0 78 0.0 23 7   102.24     LegendNANA
21:30 8.1 5.5 84 0.0 19 5   102.25     LegendNANA
22:30 8.0 5.1 82 0.0 20 10   102.24     LegendNANA
23:30 9.4 6.3 81 0.0 22 10   102.24     LegendNANA

Notes on Data Quality.

Legend

  • E = Estimated
  • M = Missing
  • NA = Not Available*
  • [empty] = Indicates an unobserved value
Date modified: